Tracking 20083 objects as of 12-Dec-2019
HD Live streaming from Space Station
objects crossing your sky now

COSMOS 2251 DEB

Track COSMOS 2251 DEB now!
10-day predictions


NORAD ID: 34449
Int'l Code: 1993-036SS
Perigee: 694.2 km
Apogee: 792.7 km
Inclination: 74.1 °
Period: 99.5 minutes
Semi major axis: 7114 km
RCS: 0.033 m2 (small)
Launch date: June 16, 1993
Source: Commonwealth of Independent States (former USSR) (CIS)
Launch site: PLESETSK MISSILE AND SPACE COMPLEX (PKMTR)

Note: This is SATELLITE DEBRIS
aabbcc
Your satellite tracking list
Your tracking list is empty




NASA's NSSDC Master Catalog

Two Line Element Set (TLE):
1 34449U 93036SS  19345.82381897 +.00000478 +00000-0 +13583-3 0  9995
2 34449 074.0521 276.1480 0069226 170.0678 221.5580 14.46755618567443
Source of the keplerian elements: AFSPC